Tracking 19625 objects as of 26-May-2019
HD Live streaming from Space Station
objects crossing your sky now
Watch Starlink satellites crossing your sky!

SL-8 R/B

Track SL-8 R/B now!
10-day predictions


NORAD ID: 7284
Int'l Code: 1974-028B
Perigee: 1,369.8 km
Apogee: 1,395.6 km
Inclination: 74.0 °
Period: 113.2 minutes
Semi major axis: 7753 km
RCS: 5.3325 m2 (large)
Launch date: April 29, 1974
Source: Commonwealth of Independent States (former USSR) (CIS)
Launch site: PLESETSK MISSILE AND SPACE COMPLEX (PKMTR)

Note: This is a ROCKET BODY
aabbcc
Your satellite tracking list
Your tracking list is empty




NASA's NSSDC Master Catalog

Two Line Element Set (TLE):
1  7284U 74028B   19145.93241838 -.00000005 +00000-0 +58260-4 0  9991
2  7284 074.0428 059.4204 0016676 013.7965 054.7419 12.71566652091965
Source of the keplerian elements: AFSPC